星链-5853 (STARLINK-5853 )

导读 | 星芒AI

STARLINK-5853 是 SpaceX Starlink 卫星互联网项目中的一颗低轨通信卫星。该卫星属于 Starlink 群体部署的一部分,旨在为全球用户提供高速互联网服务。它运行在约 550 公里的近地轨道上,采用先进的通信技术,支持宽带数据传输。STARLINK-5853 于 2022 年发射,是 SpaceX 扩展其全球网络覆盖计划的一部分,有助于提升偏远地区的网络接入能力,推动全球互联网普及。

基本信息
目录编号:
56881
目录名称:
STARLINK-5853
国际标识:
2023-083F
轨道中心:
EARTH
卫星名称:
星链-5853
卫星全名:
星链-5853 (STARLINK-5853 )
卫星状态:
在轨 (已飞行923 天)
发射日期:
2023-06-12 UTC
国别 :
美国 (US)
星等 :
--
轨道信息
数据来源 国际轨道数据 AOE轨道数据
星历时间 2025-12-21T03:49:15+0800
20小时前
查看轨道信息
2025-12-18T05:00:00+0800
3天前
查看轨道信息
半长轴 6937.266km 6937.165km
偏心率 0.0001219 0.0001592
轨道倾角 43.002° 43.002°
近地点辐角 274.676° 286.917°
升交点赤经 150.613° 166.651°
平近点角 85.394° 293.377°
近地点 558.283km 557.925km
远地点 559.975km 560.135km
周期 95.839分钟 95.837分钟
每日圈数 15.0252 15.025528
详细信息
固有亮度:
5
最大亮度:
2.4
卫星平台:
Starlink v1.5
覆盖范围:
全球
运营商:
太空探索技术公司
运营商所在国:
美国
制造商(研发单位):
太空探索技术公司
制造商所在国:
美国
使用方式:
暂无
卫星简介
星链(Starlink)计划是由太空探索技术公司(SpaceX)提出的一个巨型低轨卫星互联网星座项目,计划在2019年至2024年间在太空搭建由约1.2万颗卫星组成的“星链”网络,其中1584颗将部署在地球上空550千米处的近地轨道,并从2020年开始工作。该卫星仍在工作。
2D轨道图
3D轨道图
轨道高度分析图
轨道倾角分析图
轨道综合分析图
查看轨道综合分析图